Regional Weather Roundup
Issued by NWS Upton, NY

Home | Current Version | Previous Version | Text Only | Print | Product List | Glossary On
Versions: 1 2 3 4 5 6 7 8 9 10 11 12 13 14 15 16 17 18 19 20 21 22 23 24 25 26 27
000
ASUS41 KOKX 270509
RWROKX

REGIONAL WEATHER ROUNDUP
NATIONAL WEATHER SERVICE NEW YORK NY
100 AM EDT THU JUL 27 2017

NOTE: "FAIR" INDICATES FEW OR NO CLOUDS BELOW 12,000 FEET WITH NO
SIGNIFICANT WEATHER AND/OR OBSTRUCTIONS TO VISIBILITY.

NYZ071-072-176-178-NJZ106-104-270600-
NEW YORK CITY METRO AREA

CITY           SKY/WX    TMP DP  RH WIND       PRES   REMARKS
Central Park   PTCLDY    68  57  68 CALM      30.14F
Bronx Bot Gard   N/A     64  54  68 CALM      30.12F
LaGuardia APRT MOCLDY    69  59  70 S9        30.11F
Kennedy INTL   CLOUDY    67  61  81 S7        30.13F
Breezy Point     N/A     66 N/A N/A S6          N/A
Newark/Liberty PTCLDY    67  59  75 S7        30.11F
Teterboro      PTCLDY    66  59  78 SW5       30.11F
$$

NYZ177-179-078>081-270600-
LONG ISLAND NEW YORK

CITY           SKY/WX    TMP DP  RH WIND       PRES   REMARKS
Jones Beach      N/A     66 N/A N/A S1          N/A
Matinecock PT    N/A     64 N/A N/A SE3         N/A
Farmingdale    PTCLDY    64  58  80 W5        30.13F
MacArthur/ISP  PTCLDY    63  58  83 CALM      30.12F
Shirley        PTCLDY    60  58  92 CALM      30.13F
Mt Sinai Harb    N/A    N/A N/A N/A MISG        N/A
Westhampton    PTCLDY    54  51  90 CALM      30.14F
East Hampton   FAIR      53  52  96 CALM      30.12F
Montauk          N/A     63  60  90 CALM      30.14F
$$

NYZ052-065-067-270600-
HUDSON VALLEY

CITY           SKY/WX    TMP DP  RH WIND       PRES   REMARKS
White Plains   CLOUDY    62  57  83 CALM      30.11F
Larchmont Harb   N/A     68 N/A N/A S9          N/A
Croton O-T Hud   N/A     63 N/A N/A CALM        N/A
Newburgh       CLEAR     61  57  88 CALM      30.12F
Montgomery     PTCLDY    60  57  89 CALM      30.11F
Poughkeepsie   PTCLDY    63  55  75 CALM      30.09F
Albany         MOCLDY    67  60  78 S9        30.05F
$$

NJZ001-105-106-008-010-013-015-019>022-104-270600-
NEW JERSEY

CITY           SKY/WX    TMP DP  RH WIND       PRES   REMARKS
Newark/Liberty PTCLDY    67  59  75 S7        30.11F
Teterboro      PTCLDY    66  59  78 SW5       30.11F
Caldwell       PTCLDY    62  60  93 CALM      30.13F
Somerville     PTCLDY    62  61  96 CALM      30.11F
Linden         FAIR      66  58  73 CALM      30.12F
Perth Amboy      N/A     64 N/A N/A S3          N/A
Sussex         MOCLDY    60  59  96 CALM      30.12F
Andover          N/A     62  59  90 CALM      30.13F
Trenton        PTCLDY    65  61  87 S5        30.12F
Millville      CLOUDY    63  63 100 CALM      30.13F
Atlantic City  PTCLDY    62  59  90 NW3       30.14S
Wrightstown    PTCLDY    62  60  91 S6        30.10F
Toms River     CLEAR     59  57  93 CALM      30.15R
Belmar         PTCLDY    61  59  93 CALM      30.15S
$$

PAZ047>061-062-071-270600-
EASTERN PENNSYLVANIA

CITY           SKY/WX    TMP DP  RH WIND       PRES   REMARKS
Philadelphia   MOCLDY    67  61  81 SE6       30.13F
Allentown      CLOUDY    69  61  75 CALM      30.12S
Scranton       CLOUDY    68  62  81 VRB5      30.10F
$$

CTZ002-004>006-009-010-012-RIZ004-006-007-MAZ004-011-015-270600-
SOUTHERN NEW ENGLAND
 IN CT

CITY           SKY/WX    TMP DP  RH WIND       PRES   REMARKS
Bradley INTL   CLOUDY    65  58  78 SW8       30.10F
Hartford       PTCLDY    65  59  81 S6        30.11F
Danbury        CLOUDY    62  57  83 CALM      30.13F
Wtrbury/Oxford PTCLDY    61  54  77 CALM      30.13F
Bridgeport     MOCLDY    69  58  67 SW7       30.12F
Meriden        MOCLDY    59  58  96 CALM      30.12F
New Haven      PTCLDY    68  58  70 SW5       30.12F
Chester        FAIR      63  59  88 SW3       30.13F
Groton         PTCLDY    63  60  90 SW3       30.12F
Wilimantic     CLOUDY    62  59  90 CALM      30.12F

 IN RI

CITY           SKY/WX    TMP DP  RH WIND       PRES   REMARKS
Providence     PTCLDY    62  61  96 S7        30.12F
Block Island   CLOUDY    62  58  86 SW6       30.13F
Westerly       CLOUDY    65  61  87 SW3       30.13F
 IN MA

CITY           SKY/WX    TMP DP  RH WIND       PRES   REMARKS
Boston         MOCLDY    65  58  78 SW10      30.09F
Worcester      CLOUDY    60  54  80 SW10      30.12S
Westfield      CLOUDY    64  59  83 S6        30.10F
Provincetown   CLOUDY    62  60  93 SW9       30.12F
Nantucket      PTCLDY    58  56  93 SW7       30.13F
$$

ANZ330-335-338-340-345-350-353-355-270600-
COASTAL MARINE OBSERVATIONS


STATION/POSITION TIME  SKY/WX   TEMP    WIND        PRES    VSBY  WAVE
                                AIR SEA DIR/SP/G                  HT/PER
                 (UTC)          (F)     (DEG/KT/KT) (MB)    (MI)  (FT/S)
NY HARB ENTRANCE 0350            69 73  170/  8/ 10 1019.9          2/10
20 S FIRE ISLAND 0450            68 74  160/  6/  8 1019.8          2/10
GREAT SOUTH BAY  0415            69 75  170/  8/  8   N/A
23 SSW MONTAUK P 0350            68 73              1020.8          2/ 8
15 E BARNEGAT LI 0430               73                N/A           2/11
HUDSON CANYON    0350            68 72  100/  6/  8 1019.9          2/10
KINGS POINT      0406            68 72  220/  4/  5 1020.2
EXECUTION ROCKS  0445            69     170/  6/  8   N/A
CENTRAL LI SOUND NOT AVBL
EASTERN LI SOUND NOT AVBL
ROBBINS REEF     0430                   230/  8/  8 1020.8
$$


>>>>>>>>>>>>>>>>>>>>>>>>>>>> KEY <<<<<<<<<<<<<<<<<<<<<<<<<<<
>                                                          <
>     SKY/WX - Sky Condition/Present Weather               <
>     TMP    - Temperature in Fahrenheit                   <
>     DP     - Dew Point in Fahrenheit                     <
>     RH     - Relative Humidity in Percent                <
>     WIND   - Direction (from) and Speed in MPH           <
>     PRES   - Mean Sea Level Pressure (inches of Hg)      <
>     WCI    - Wind Chill Index                            <
>     VSB    - VISIBILITY IN MILES                         <
>     HX     - HEAT INDEX                                  <
>     TC     - TEMPERATURE IN CELSIUS                      <
>     VRB    - VARIABLE WIND DIRECTION                     <
>                                                          <
>>>>>>>>>>>>>>>>>>>>>>>>>>>> KEY <<<<<<<<<<<<<<<<<<<<<<<<<<<




USA.gov is the U.S. government's official web portal to all federal, state and local government web resources and services.